Wind_Speed
20 18 17 16 17 17 13 9 12 16 16 12 13 13 12 10 9 7 2 2 2 4 12 6 7 10 11 11 7 18 10 10 7 7 6 5 4 6 4 11 7 8 6 6 7 5 4 30 10 7 5 11 11 12
22 18 16 17 16 13 11 12 18 18 15 11 12 12 14 11 8 8 3 4 7 5 10 18 13 11 13 9 9 9 3 11 8 5 6 4 4 5 10 3 12 5 5 3 6 4 10 15 15 13 12 11 13 12
19 17 16 15 15 14 12 15 20 16 15 14 11 11 12 12 10 8 4 6 5 6 12 6 2 3 3 4 4 5 6 9 10 7 5 3 3 7 6 5 3 4 16 3 6 8 11 13 13 14 12 12 12 13
20 17 16 14 15 14 16 19 17 14 13 14 10 10 12 12 11 10 10 4 1 5 4 1 0 2 4 4 4 5 8 8 9 10 4 3 3 10 4 3 5 5 10 7 7 10 12 14 12 10 11 13 15 15
20 19 17 15 15 16 19 17 16 14 13 11 10 11 12 12 10 10 10 9 5 3 5 10 13 4 1 2 3 5 5 6 10 6 2 2 2 4 3 2 5 7 4 4 4 5 12 9 9 8 11 13 14 14
25 22 18 14 12 15 20 18 17 16 12 10 13 13 12 12 9 6 4 10 11 9 4 3 7 7 4 3 4 4 5 4 3 3 4 4 1 5 3 3 4 6 7 5 5 12 16 10 9 10 12 14 15 15
20 20 16 13 13 15 17 17 17 13 12 15 13 12 11 11 12 8 1 0 5 9 4 5 4 3 4 4 4 4 4 4 4 5 4 5 2 5 2 3 7 7 9 10 10 12 11 3 7 10 13 14 14 14
18 17 16 15 14 17 16 19 14 11 14 16 11 10 11 11 14 15 6 1 7 6 3 2 4 4 6 4 3 2 3 1 4 5 4 3 3 3 2 6 8 6 7 8 7 7 11 11 10 11 11 11 13 13
20 18 17 14 17 20 16 16 13 13 18 14 10 11 13 13 9 15 16 2 8 3 3 4 3 2 4 5 3 4 5 3 5 2 2 1 2 3 4 9 6 3 2 5 6 8 10 10 11 11 11 11 12 12
20 19 17 15 21 21 20 15 14 17 15 12 13 7 6 8 12 14 7 5 5 4 5 5 9 5 2 1 3 4 4 3 2 4 3 1 2 7 6 8 7 4 6 6 6 7 8 10 10 11 12 11 11 10
21 20 18 20 22 20 18 15 19 18 14 15 8 3 7 18 9 5 4 5 6 4 6 5 11 7 5 3 2 3 1 1 2 2 2 3 3 7 8 7 6 7 7 7 9 9 10 10 10 11 12 11 9 8
20 20 21 24 24 21 18 18 19 18 12 12 8 11 18 4 4 4 5 4 4 4 8 5 4 6 1 1 2 1 2 2 2 2 2 2 4 12 11 10 9 9 10 11 12 13 14 13 12 12 11 10 10 9
18 19 20 25 25 20 19 19 20 18 13 13 5 6 5 5 5 5 8 4 4 5 5 5 1 2 3 2 1 1 2 3 1 2 0 3 13 13 12 11 11 11 12 13 15 15 15 15 12 11 12 10 8 7
20 21 19 22 22 21 18 19 22 21 5 4 6 6 4 4 5 4 3 3 3 5 8 9 5 4 2 3 1 3 2 2 2 3 2 5 14 15 13 12 14 15 16 15 15 13 15 15 13 11 8 7 6 6
20 23 19 23 21 18 17 20 21 18 5 4 4 5 7 2 4 5 7 6 5 9 11 7 3 3 2 2 3 3 2 3 2 2 3 16 18 17 16 15 15 16 15 14 16 16 14 12 9 8 6 5 4 3
21 20 21 21 19 18 18 20 19 13 4 4 3 1 3 5 4 3 5 5 7 11 10 1 1 2 3 2 3 3 2 2 2 3 16 21 20 16 15 14 15 15 15 15 15 13 10 9 7 5 3 1 1 2
25 15 21 18 18 18 20 21 12 6 5 3 3 5 2 3 6 7 8 7 10 11 1 3 4 3 1 2 2 2 1 3 10 13 15 16 18 18 18 18 18 17 16 15 13 10 8 6 4 3 4 5 4 7
21 19 14 21 24 24 20 21 7 7 5 3 4 7 9 5 6 8 8 9 8 4 3 2 2 2 3 2 2 3 5 12 12 15 16 17 17 18 18 18 18 16 15 13 11 9 7 6 5 2 3 4 5 6
22 20 21 28 29 17 9 9 6 5 2 5 6 8 6 5 5 7 9 13 8 3 2 2 1 3 0 3 3 8 15 16 18 15 15 15 16 19 18 18 17 15 13 12 9 5 3 1 4 3 1 3 3 4
26 25 23 25 26 8 4 4 7 4 4 7 7 7 5 4 6 6 9 11 7 2 2 3 1 2 3 2 2 11 15 19 21 20 17 16 17 19 18 17 14 13 11 9 6 7 4 3 1 1 5 5 4 4
25 30 28 31 26 10 4 6 6 4 6 4 10 8 4 6 5 6 6 11 5 4 4 2 4 6 4 6 8 12 15 16 17 15 21 22 20 17 17 14 13 11 8 7 7 7 8 3 3 4 6 3 8 7
26 34 37 30 13 4 2 3 7 9 5 6 9 6 4 4 5 6 9 7 5 5 5 4 7 6 9 10 11 11 16 14 14 16 17 21 22 19 17 15 13 11 9 8 7 6 4 5 7 7 5 6 8 7
37 34 26 7 5 3 4 9 4 7 4 9 8 5 3 4 5 10 5 6 5 8 8 7 9 9 11 13 13 15 14 14 16 18 19 18 16 16 14 13 11 10 8 7 6 5 7 10 11 8 6 7 7 8
24 7 5 5 4 5 7 4 5 5 6 5 5 5 5 5 7 6 3 6 7 10 11 13 15 15 14 14 13 14 15 16 17 19 17 18 17 14 13 12 9 8 7 7 7 6 8 6 8 7 6 9 10 9
4 3 5 4 5 6 5 6 5 4 5 5 6 4 4 7 4 4 3 6 11 13 15 15 14 14 16 15 15 15 15 17 21 18 15 13 14 14 13 11 9 11 9 8 5 4 5 8 9 8 8 9 9 11
3 2 1 5 6 6 7 5 8 6 4 4 4 7 6 4 4 4 1 4 9 14 18 20 18 17 17 18 18 17 16 16 17 17 13 13 13 12 12 12 7 5 6 8 9 7 5 10 11 10 9 7 11 13
3 3 2 2 3 6 4 3 9 4 5 5 5 7 5 4 6 3 3 6 8 12 17 18 16 17 18 18 17 18 16 16 16 17 17 18 17 14 11 9 9 9 7 6 7 6 6 8 9 8 8 8 7 10
3 2 5 7 4 2 2 3 5 5 3 4 11 6 5 1 3 3 3 8 9 11 17 14 13 17 23 26 25 24 22 21 21 16 14 15 13 11 10 8 7 8 6 6 6 6 6 6 7 8 8 10 11 12
3 5 6 4 4 3 2 1 2 3 1 2 2 3 3 3 4 4 7 12 14 17 19 20 21 22 22 20 18 19 20 19 15 14 11 10 9 8 7 6 5 5 4 4 4 4 5 6 7 8 10 12 13 13
4 2 4 3 2 2 3 3 3 2 2 4 5 6 6 4 3 8 10 12 13 14 17 19 19 18 18 19 20 19 17 14 10 10 9 9 9 6 5 4 3 2 2 2 4 4 4 6 9 10 12 13 12 15
5 3 3 3 3 4 5 6 7 7 5 4 5 9 8 6 7 11 13 9 14 16 17 17 16 16 19 20 20 19 17 16 14 11 8 7 6 5 4 3 2 1 1 1 3 5 7 9 10 11 12 15 17 18
3 3 4 3 4 6 7 5 5 3 5 5 4 4 6 6 4 4 14 14 11 12 15 17 17 16 16 17 16 14 11 12 12 10 8 6 5 5 4 3 2 1 1 3 5 7 9 10 12 14 16 17 20 21
4 5 6 6 5 7 6 5 5 4 4 5 4 8 2 4 4 5 14 15 12 17 19 21 21 21 19 16 14 13 12 11 10 8 7 6 6 5 4 4 2 2 3 5 7 9 11 13 14 16 18 20 22 24
Wind_Direction
177 175 177 185 183 185 192 197 195 182 182 192 206 198 183 183 183 195 226 201 278 287 292 323 347 315 321 330 339 333 336 7 353 356 358 349 332 13 60 49 17 39 337 25 351 38 60 359 24 50 342 50 51 53
172 175 180 185 194 201 200 189 186 184 184 180 177 183 185 194 191 193 226 251 264 264 268 289 284 270 266 282 300 305 318 19 12 347 8 323 332 347 355 45 25 52 20 37 28 71 72 47 57 42 45 56 47 57
174 177 185 190 190 189 187 187 183 188 185 178 174 186 195 203 206 208 242 251 298 326 312 266 208 167 283 270 247 282 32 4 345 346 322 296 309 352 11 39 74 49 11 82 170 67 67 57 57 55 51 60 62 66
181 185 187 184 181 191 184 178 185 190 184 182 194 202 201 202 209 204 231 280 238 315 286 321 313 333 290 244 241 249 291 328 313 312 320 295 327 13 4 53 60 348 321 24 97 118 105 56 52 56 63 66 68 70
187 179 180 178 180 184 182 186 186 191 183 189 196 195 189 196 204 212 224 233 205 262 317 299 297 248 266 250 258 251 264 309 333 343 294 318 16 322 334 85 53 3 8 357 58 43 89 64 57 68 74 72 74 72
193 178 175 176 186 192 192 191 197 195 189 198 187 182 190 192 195 180 251 246 225 225 294 302 325 237 227 236 248 234 244 278 291 298 275 294 15 349 308 75 75 45 59 41 101 83 93 108 87 81 83 81 78 75
179 177 183 184 189 187 189 190 183 186 188 176 179 188 193 197 197 189 197 311 194 193 254 288 285 203 203 224 216 211 207 261 279 287 251 277 53 347 1 68 113 76 102 92 96 109 114 113 108 96 86 84 82 80
184 188 186 185 194 189 187 181 184 190 182 179 190 201 203 207 221 227 232 343 167 188 269 270 277 214 187 200 218 192 215 257 248 268 279 270 137 82 83 97 108 106 91 79 77 93 105 111 101 95 91 88 81 77
185 184 190 198 195 185 186 182 194 189 174 178 195 193 196 213 222 238 220 250 182 269 268 208 269 334 169 216 206 179 202 232 224 233 265 267 158 64 114 146 132 122 102 144 134 109 103 96 94 92 90 85 84 81
187 185 188 189 182 179 177 181 179 165 170 182 181 181 206 190 180 179 148 162 209 238 237 252 249 283 243 97 238 194 218 247 221 210 190 197 85 118 118 120 112 118 143 132 121 113 109 95 93 88 84 85 88 86
188 191 195 189 183 183 174 178 170 168 177 179 181 198 150 157 141 153 153 198 189 236 225 244 250 253 272 224 270 343 331 249 250 131 249 155 130 143 140 126 109 98 108 100 94 91 103 115 111 104 96 98 109 103
197 199 195 187 182 182 180 178 175 182 182 182 166 138 152 170 165 184 183 191 213 256 165 185 226 224 234 347 311 300 272 262 273 137 263 158 107 142 141 128 112 105 104 102 105 106 106 106 110 114 120 115 103 94
182 179 179 181 182 189 187 183 181 184 170 168 172 155 180 179 195 209 178 198 204 199 177 138 195 205 203 201 302 278 238 247 162 233 99 59 139 146 140 131 119 114 113 111 108 113 131 138 145 128 116 109 98 83
185 181 181 186 193 186 187 186 186 194 191 209 180 162 222 177 227 201 204 170 166 124 152 160 169 219 169 176 240 248 218 251 248 240 104 142 147 140 140 138 136 131 137 140 147 145 130 126 123 117 111 105 97 84
185 184 185 179 180 187 191 186 193 204 228 235 213 201 196 149 88 105 122 114 108 148 156 178 228 195 174 203 214 247 214 246 244 20 95 137 142 144 141 154 158 155 157 146 136 130 127 127 125 121 113 98 78 55
180 177 182 180 185 190 185 181 196 211 254 241 250 217 90 145 126 149 153 144 160 167 179 240 163 235 211 246 192 221 264 242 88 86 125 141 150 152 162 161 154 145 143 142 139 138 138 135 125 113 105 92 355 348
179 180 182 181 184 179 178 181 199 188 245 243 194 195 164 74 154 164 167 170 174 170 223 207 192 233 110 209 225 269 5 70 119 123 140 153 157 164 161 150 146 149 150 147 149 148 141 129 121 91 26 355 352 355
180 184 188 181 167 169 181 185 207 193 221 218 211 180 169 147 150 164 181 177 176 202 245 280 303 221 243 219 139 117 123 116 128 135 142 157 164 160 155 152 151 150 154 158 155 148 136 115 77 53 346 331 359 329
181 188 178 173 174 162 162 196 208 178 123 165 136 150 158 166 167 179 192 188 185 216 295 249 249 245 241 66 108 130 143 144 136 136 153 159 155 152 152 152 153 158 162 157 150 150 135 144 166 185 248 292 288 292
187 185 175 184 184 185 187 186 162 161 159 166 160 163 142 139 167 179 185 187 190 199 257 234 283 55 47 150 149 169 164 163 152 140 145 150 157 154 157 155 156 161 155 149 147 169 184 191 217 242 254 272 291 253
200 196 183 184 189 215 210 165 148 142 144 141 152 144 112 142 153 169 168 178 191 230 228 178 196 223 159 134 145 165 171 163 160 164 160 158 159 161 154 159 171 157 165 171 187 195 198 202 219 249 284 278 279 294
184 182 149 160 179 187 193 160 148 138 123 140 155 166 149 177 176 185 161 188 225 203 197 170 191 190 149 149 149 152 150 149 159 158 160 158 158 162 166 175 162 174 184 198 196 214 213 221 238 274 290 267 285 316
144 150 153 137 133 138 147 141 130 153 138 165 164 152 171 180 156 159 209 223 208 196 195 168 176 152 154 144 146 145 152 155 151 160 160 156 161 167 172 172 178 186 182 189 196 216 229 239 272 274 272 303 301 297
140 119 134 130 140 126 155 180 149 125 123 178 178 179 168 163 167 211 241 196 159 185 170 166 155 144 146 149 151 154 153 158 163 156 159 161 161 162 174 171 175 175 181 197 218 204 242 266 275 294 302 300 306 305
109 105 139 120 145 143 155 160 172 170 170 184 172 159 153 164 192 210 243 158 168 178 183 170 171 167 161 158 157 157 163 174 163 158 165 163 160 155 158 163 176 207 206 212 234 236 263 279 288 296 292 285 279 278
109 135 244 143 162 168 166 153 178 176 146 157 174 130 162 182 187 231 119 118 167 179 186 178 173 168 166 167 163 160 160 164 167 160 154 163 171 174 177 182 192 214 214 208 210 237 250 271 286 291 294 302 300 308
129 129 113 105 116 121 110 109 135 146 171 168 159 169 171 193 208 96 128 104 147 180 182 175 173 170 162 157 155 158 159 165 167 164 163 163 167 168 180 176 187 218 249 263 265 270 264 273 292 296 300 305 299 293
78 109 153 142 110 47 114 145 169 174 154 139 150 185 202 294 94 104 126 156 151 168 167 160 152 163 162 168 172 170 170 172 180 188 182 179 181 184 192 204 223 247 268 282 293 292 290 289 289 296 301 301 305 311
110 121 107 106 120 121 118 171 114 71 40 293 232 124 100 76 103 120 143 140 153 165 162 154 148 164 171 178 188 185 175 174 178 171 171 179 180 191 193 207 225 249 271 283 292 302 310 310 316 314 313 312 315 326
144 147 110 108 139 126 95 16 96 125 101 81 103 108 96 106 139 144 154 156 163 161 167 171 171 177 180 167 148 149 155 163 165 175 179 175 197 187 197 210 226 249 277 313 328 332 325 326 328 329 330 327 317 308
140 132 109 101 89 86 121 138 122 116 120 110 84 131 133 136 144 139 154 139 177 181 183 176 163 166 161 169 172 173 172 171 175 183 187 187 186 191 190 186 183 192 321 334 335 335 334 332 330 324 319 316 318 317
121 133 137 125 117 143 148 179 162 136 147 144 134 135 147 154 116 165 167 144 147 160 162 163 161 161 165 170 172 175 175 176 173 177 180 180 170 160 154 148 138 105 31 353 345 339 335 332 330 328 326 323 321 323
118 110 114 112 135 174 172 178 166 152 166 153 158 175 159 127 116 171 164 158 157 168 164 170 175 175 176 176 173 173 174 174 170 164 157 152 146 141 135 125 105 50 10 356 346 338 336 337 334 331 328 327 328 327
Height
1405 1410 1415 1420 1425 1430 1434 1437 1441 1444 1448 1452 1454 1457 1461 1464 1467 1469 1472 1472 1474 1472 1467 1466 1465 1465 1463 1461 1458 1454 1447 1446 1443 1436 1430 1427 1419 1414 1414 1415 1417 1421 1420 1418 1411 1416 1427 1447 1432 1440 1459 1458 1457 1457
1405 1411 1415 1420 1425 1429 1432 1436 1440 1444 1448 1451 1454 1457 1460 1464 1467 1470 1471 1472 1472 1472 1468 1464 1462 1463 1464 1464 1464 1459 1458 1456 1456 1451 1447 1442 1432 1426 1425 1425 1426 1435 1440 1439 1445 1452 1461 1461 1460 1462 1461 1461 1460 1459
1405 1411 1415 1419 1423 1428 1431 1435 1439 1444 1448 1451 1454 1457 1460 1464 1467 1470 1471 1472 1471 1469 1465 1462 1459 1463 1462 1462 1462 1462 1459 1460 1458 1457 1454 1448 1441 1435 1436 1438 1436 1443 1442 1443 1448 1461 1463 1464 1465 1465 1465 1464 1463 1462
1405 1410 1415 1418 1423 1427 1431 1435 1440 1444 1447 1451 1454 1457 1460 1463 1467 1469 1470 1471 1472 1473 1469 1462 1461 1461 1461 1460 1460 1461 1462 1461 1458 1455 1454 1450 1447 1444 1442 1445 1449 1455 1450 1450 1457 1462 1465 1468 1468 1468 1468 1467 1465 1465
1404 1409 1414 1419 1423 1427 1432 1435 1440 1444 1447 1450 1453 1457 1460 1463 1467 1468 1470 1471 1472 1476 1471 1464 1461 1459 1459 1459 1459 1460 1462 1461 1459 1457 1454 1451 1452 1450 1446 1446 1459 1462 1463 1458 1460 1465 1465 1471 1471 1471 1470 1468 1468 1468
1403 1409 1414 1419 1423 1427 1431 1435 1440 1444 1447 1450 1453 1457 1460 1463 1467 1468 1470 1469 1470 1472 1473 1466 1460 1457 1458 1458 1459 1459 1460 1460 1460 1460 1456 1452 1453 1453 1449 1453 1467 1467 1466 1464 1467 1468 1466 1473 1473 1473 1471 1470 1470 1471
1403 1408 1414 1418 1422 1426 1431 1435 1439 1443 1446 1450 1454 1458 1461 1464 1466 1468 1469 1467 1469 1471 1472 1466 1457 1456 1456 1456 1457 1458 1459 1459 1459 1457 1453 1452 1453 1454 1453 1456 1469 1469 1468 1468 1468 1469 1473 1474 1474 1474 1473 1473 1474 1474
1403 1408 1412 1417 1422 1426 1431 1435 1439 1442 1446 1450 1455 1458 1461 1463 1465 1466 1468 1468 1469 1471 1471 1468 1460 1454 1455 1455 1456 1457 1458 1458 1458 1455 1452 1451 1453 1454 1461 1467 1469 1469 1469 1469 1471 1472 1472 1474 1475 1475 1476 1476 1477 1477
1403 1407 1412 1416 1420 1426 1430 1434 1439 1442 1446 1451 1455 1458 1461 1463 1463 1463 1467 1469 1470 1472 1468 1466 1461 1448 1453 1454 1455 1456 1457 1456 1454 1453 1450 1450 1448 1459 1465 1467 1469 1470 1470 1472 1473 1474 1474 1475 1476 1477 1478 1479 1480 1481
1402 1407 1411 1415 1420 1425 1430 1435 1439 1442 1447 1451 1455 1458 1458 1457 1460 1463 1466 1469 1470 1468 1466 1461 1457 1454 1454 1454 1453 1453 1452 1449 1448 1448 1448 1449 1461 1466 1467 1468 1470 1471 1472 1473 1474 1474 1476 1477 1479 1480 1481 1482 1483 1483
1401 1406 1410 1415 1420 1425 1430 1435 1439 1443 1447 1450 1453 1454 1455 1457 1460 1463 1466 1467 1466 1464 1459 1455 1453 1453 1452 1453 1450 1450 1450 1447 1445 1445 1445 1445 1456 1464 1468 1469 1471 1472 1473 1474 1475 1475 1477 1479 1481 1482 1483 1484 1484 1484
1400 1405 1409 1414 1420 1425 1430 1434 1439 1443 1446 1449 1451 1453 1456 1458 1459 1461 1460 1459 1458 1451 1450 1451 1452 1452 1452 1452 1452 1452 1451 1448 1445 1445 1444 1441 1461 1464 1468 1470 1472 1473 1474 1475 1476 1478 1479 1481 1483 1484 1485 1485 1485 1486
1400 1404 1408 1414 1420 1425 1430 1434 1439 1443 1446 1448 1449 1451 1453 1454 1453 1451 1451 1449 1448 1445 1447 1449 1452 1452 1453 1453 1454 1453 1453 1447 1445 1444 1440 1455 1461 1465 1468 1471 1473 1474 1476 1477 1479 1480 1480 1481 1483 1484 1485 1487 1488 1488
1400 1405 1410 1415 1421 1425 1430 1434 1439 1442 1444 1445 1445 1446 1447 1445 1442 1438 1436 1439 1442 1444 1447 1450 1451 1451 1451 1452 1453 1452 1448 1447 1443 1439 1442 1456 1462 1466 1469 1471 1473 1475 1476 1477 1479 1480 1481 1483 1485 1487 1488 1489 1489 1489
1400 1406 1411 1416 1421 1426 1430 1435 1439 1442 1443 1441 1440 1435 1437 1437 1438 1439 1440 1442 1444 1446 1448 1450 1450 1450 1450 1452 1451 1449 1446 1441 1439 1438 1450 1457 1462 1465 1468 1470 1473 1475 1477 1478 1480 1482 1484 1486 1487 1489 1490 1490 1490 1490
1401 1407 1410 1416 1421 1425 1430 1435 1438 1442 1442 1438 1436 1435 1435 1437 1440 1442 1442 1444 1445 1447 1448 1448 1449 1449 1448 1447 1445 1443 1441 1434 1445 1452 1455 1458 1462 1466 1468 1471 1473 1475 1478 1480 1482 1485 1486 1487 1488 1489 1490 1490 1490 1490
1400 1404 1409 1415 1420 1426 1430 1434 1439 1440 1440 1435 1434 1435 1435 1436 1437 1440 1442 1444 1446 1448 1448 1446 1448 1445 1446 1444 1443 1439 1441 1448 1452 1455 1458 1460 1463 1466 1468 1471 1474 1477 1479 1482 1484 1485 1487 1489 1490 1490 1490 1490 1489 1489
1400 1405 1409 1414 1420 1425 1430 1434 1435 1435 1434 1434 1434 1434 1435 1436 1438 1439 1442 1444 1446 1447 1447 1445 1443 1443 1441 1438 1435 1445 1450 1452 1454 1456 1459 1461 1464 1466 1469 1471 1475 1478 1480 1482 1484 1486 1488 1489 1489 1490 1491 1491 1490 1489
1400 1404 1409 1415 1418 1424 1429 1432 1432 1430 1432 1433 1434 1435 1435 1436 1438 1439 1441 1443 1445 1446 1446 1445 1445 1439 1438 1443 1444 1447 1449 1451 1454 1458 1460 1463 1465 1467 1470 1473 1476 1479 1481 1483 1485 1487 1489 1489 1490 1491 1491 1491 1491 1491
1399 1405 1411 1416 1422 1426 1426 1426 1427 1428 1429 1430 1432 1434 1436 1437 1438 1439 1441 1443 1446 1447 1446 1443 1440 1442 1443 1445 1445 1446 1448 1450 1452 1457 1461 1464 1467 1469 1472 1474 1477 1480 1482 1484 1486 1488 1489 1489 1489 1488 1488 1487 1487 1487
1398 1402 1409 1418 1422 1423 1422 1421 1422 1425 1427 1429 1431 1433 1436 1437 1438 1440 1441 1443 1445 1443 1440 1440 1441 1442 1443 1444 1446 1446 1448 1450 1453 1456 1459 1462 1466 1470 1473 1476 1478 1481 1483 1484 1485 1486 1487 1488 1488 1486 1486 1486 1485 1484
1388 1395 1400 1412 1419 1420 1419 1418 1420 1423 1427 1428 1431 1432 1434 1436 1437 1439 1440 1442 1439 1437 1438 1440 1440 1440 1442 1444 1446 1448 1450 1453 1455 1457 1460 1463 1466 1470 1473 1475 1478 1480 1482 1483 1485 1485 1485 1485 1484 1484 1483 1483 1482 1482
1388 1395 1402 1407 1413 1416 1419 1418 1420 1422 1425 1429 1430 1431 1433 1434 1435 1437 1437 1435 1433 1433 1435 1437 1438 1440 1442 1445 1447 1449 1452 1453 1455 1457 1461 1464 1467 1470 1472 1475 1477 1479 1481 1482 1482 1483 1483 1482 1481 1481 1481 1481 1480 1479
1391 1394 1399 1403 1408 1411 1415 1416 1417 1420 1423 1425 1426 1427 1429 1431 1434 1433 1429 1427 1428 1430 1433 1435 1437 1439 1443 1445 1448 1450 1452 1454 1455 1459 1462 1464 1466 1469 1471 1474 1476 1478 1479 1479 1479 1480 1480 1480 1479 1479 1479 1478 1477 1476
1390 1397 1398 1401 1403 1407 1410 1412 1414 1415 1416 1418 1419 1421 1425 1428 1428 1426 1422 1422 1425 1428 1430 1434 1436 1439 1441 1444 1447 1450 1452 1453 1456 1458 1462 1464 1466 1468 1471 1473 1474 1474 1475 1476 1477 1478 1478 1478 1477 1476 1475 1474 1474 1473
1388 1394 1395 1395 1398 1399 1401 1404 1407 1409 1411 1413 1415 1418 1422 1422 1421 1418 1417 1422 1423 1426 1428 1432 1435 1438 1441 1443 1445 1449 1451 1453 1456 1459 1462 1463 1465 1467 1469 1470 1471 1472 1473 1474 1475 1476 1476 1475 1474 1473 1472 1472 1470 1469
1386 1391 1393 1394 1395 1396 1399 1400 1402 1404 1407 1407 1412 1416 1417 1415 1412 1419 1422 1422 1424 1425 1428 1431 1434 1437 1438 1441 1446 1448 1450 1453 1456 1458 1460 1462 1463 1466 1468 1470 1470 1470 1471 1471 1472 1472 1472 1471 1471 1470 1470 1469 1469 1467
1390 1391 1392 1395 1396 1397 1397 1398 1400 1400 1402 1404 1408 1409 1409 1408 1414 1420 1421 1422 1424 1425 1428 1431 1433 1435 1436 1438 1441 1444 1448 1451 1453 1456 1459 1461 1463 1464 1466 1467 1468 1468 1469 1469 1469 1469 1469 1469 1469 1468 1467 1466 1465 1463
1391 1392 1394 1397 1398 1400 1401 1400 1401 1405 1406 1406 1404 1408 1414 1417 1419 1420 1421 1422 1424 1426 1428 1429 1431 1433 1436 1440 1443 1446 1449 1452 1454 1456 1458 1459 1461 1463 1464 1465 1466 1467 1467 1467 1467 1467 1468 1467 1467 1466 1465 1464 1462 1460
1392 1392 1394 1397 1398 1398 1403 1404 1405 1406 1407 1408 1409 1413 1416 1418 1418 1419 1421 1423 1425 1427 1429 1430 1433 1435 1437 1440 1443 1447 1450 1453 1455 1457 1457 1458 1459 1461 1462 1463 1464 1465 1466 1466 1466 1466 1466 1466 1465 1464 1462 1461 1460 1457
1391 1392 1394 1395 1399 1403 1404 1405 1406 1408 1409 1410 1410 1411 1415 1418 1419 1419 1421 1423 1425 1427 1429 1431 1434 1437 1439 1441 1443 1445 1448 1451 1453 1454 1456 1458 1459 1460 1461 1462 1463 1464 1465 1465 1465 1465 1465 1464 1463 1462 1460 1458 1456 1453
1391 1392 1394 1397 1402 1405 1405 1406 1407 1408 1409 1410 1412 1413 1416 1417 1419 1422 1423 1423 1426 1428 1430 1432 1435 1437 1440 1441 1443 1445 1448 1450 1452 1454 1456 1457 1459 1460 1461 1462 1463 1464 1464 1465 1464 1464 1463 1462 1461 1459 1457 1455 1452 1449
1393 1393 1395 1398 1402 1403 1405 1405 1406 1407 1408 1409 1411 1412 1412 1413 1417 1421 1422 1424 1426 1428 1430 1431 1433 1436 1439 1441 1444 1446 1448 1450 1452 1455 1456 1458 1459 1460 1461 1462 1463 1464 1464 1464 1463 1463 1462 1460 1458 1456 1454 1451 1448 1445